Location: Bydgoszcz
(53.1640°N, 17.9142°E)
Time: 17:57:21
(UTC+02:00)

PCSat - Pass Details

Date: 18 April 2024
Orbit: 783 x 792 km, 67.1° (Epoch: 18 May)

Event Time Altitude Azimuth Distance (km) Brightness Sun altitude
Rises 01:33:59 0° 300° (WNW) 3,295 13.0 -25.2°
Reaches altitude 10° 01:37:09 10° 318° (NW) 2,367 12.4 -25.0°
Maximum altitude 01:40:56 19° 3° (N) 1,832 12.3 -24.9°
Drops below altitude 10° 01:44:43 10° 47° (NE) 2,369 12.8 -24.8°
Sets 01:47:53 0° 66° (ENE) 3,299 13.4 -24.6°
